| time (UTC) | temp F | wind direction | speed MPH | gust MPH | rain 1hr in | rain 24hr in | rain mn in | humidity % | barometer mb |
| 20260906201036 | 94 | 134 | 0.0 | 4.0 | 0.00 | 0.00 | 0.00 | 48 | 1012.0 |
| 20260906200513 | 94 | 134 | 1.0 | 7.0 | 0.00 | 0.00 | 0.00 | 49 | 1012.0 |
| 20260906200045 | 94 | 134 | 3.0 | 7.0 | 0.00 | 0.00 | 0.00 | 47 | 1012.1 |
| 20260906195519 | 94 | 273 | 1.0 | 4.0 | 0.00 | 0.00 | 0.00 | 49 | 1012.0 |
| 20260906195100 | 94 | 273 | 1.0 | 4.0 | 0.00 | 0.00 | 0.00 | 50 | 1012.1 |
| 20260906194525 | 94 | 266 | 1.0 | 7.0 | 0.00 | 0.00 | 0.00 | 49 | 1012.3 |
| 20260906194003 | 95 | 140 | 1.0 | 7.0 | 0.00 | 0.00 | 0.00 | 48 | 1012.3 |
| 20260906193540 | 95 | 184 | 3.0 | 7.0 | 0.00 | 0.00 | 0.00 | 46 | 1012.3 |
| 20260906193005 | 95 | 119 | 2.0 | 4.0 | 0.00 | 0.00 | 0.00 | 50 | 1012.4 |
| 20260906192546 | 94 | 132 | 0.0 | 4.0 | 0.00 | 0.00 | 0.00 | 48 | 1012.5 |
| 20260906192022 | 95 | 129 | 2.0 | 5.0 | 0.00 | 0.00 | 0.00 | 46 | 1012.5 |
| 20260906191553 | 95 | 132 | 2.0 | 9.0 | 0.00 | 0.00 | 0.00 | 44 | 1012.5 |
| 20260906191029 | 96 | 169 | 3.0 | 9.0 | 0.00 | 0.00 | 0.00 | 44 | 1012.7 |
| 20260906190509 | 96 | 139 | 3.0 | 8.0 | 0.00 | 0.00 | 0.00 | 44 | 1012.7 |
| 20260906190036 | 95 | 252 | 1.0 | 4.0 | 0.00 | 0.00 | 0.00 | 45 | 1012.7 |
| 20260906185513 | 95 | 253 | 1.0 | 5.0 | 0.00 | 0.00 | 0.00 | 46 | 1012.8 |
| 20260906185054 | 94 | 136 | 1.0 | 8.0 | 0.00 | 0.00 | 0.00 | 48 | 1012.8 |
| 20260906184525 | 93 | 127 | 1.0 | 8.0 | 0.00 | 0.00 | 0.00 | 48 | 1012.9 |
| 20260906184102 | 93 | 142 | 3.0 | 8.0 | 0.00 | 0.00 | 0.00 | 47 | 1012.9 |
| 20260906183537 | 93 | 173 | 0.0 | 5.0 | 0.00 | 0.00 | 0.00 | 47 | 1012.9 |
| 20260906183004 | 93 | 141 | 3.0 | 9.0 | 0.00 | 0.00 | 0.00 | 48 | 1013.0 |
| 20260906182543 | 94 | 184 | 3.0 | 9.0 | 0.00 | 0.00 | 0.00 | 49 | 1013.0 |
| 20260906182020 | 94 | 145 | 2.0 | 7.0 | 0.00 | 0.00 | 0.00 | 50 | 1013.0 |
| 20260906181552 | 93 | 256 | 1.0 | 4.0 | 0.00 | 0.00 | 0.00 | 51 | 1013.1 |
| 20260906181027 | 93 | 211 | 1.0 | 7.0 | 0.00 | 0.00 | 0.00 | 51 | 1013.2 |
| 20260906180505 | 92 | 181 | 3.0 | 10.0 | 0.00 | 0.00 | 0.00 | 55 | 1013.3 |
| 20260906180038 | 92 | 144 | 2.0 | 10.0 | 0.00 | 0.00 | 0.00 | 57 | 1013.4 |
| 20260906175511 | 91 | 144 | 4.0 | 10.0 | 0.00 | 0.00 | 0.00 | 58 | 1013.5 |
| 20260906175052 | 91 | 90 | 1.0 | 10.0 | 0.00 | 0.00 | 0.00 | 60 | 1013.6 |
| 20260906174526 | 91 | 142 | 4.0 | 8.0 | 0.00 | 0.00 | 0.00 | 59 | 1013.7 |
| 20260906174100 | 91 | 155 | 2.0 | 9.0 | 0.00 | 0.00 | 0.00 | 61 | 1013.9 |
| 20260906173537 | 90 | 270 | 2.0 | 10.0 | 0.00 | 0.00 | 0.00 | 61 | 1013.9 |
| 20260906173002 | 90 | 164 | 1.0 | 7.0 | 0.00 | 0.00 | 0.00 | 62 | 1014.0 |
| 20260906172542 | 90 | 139 | 3.0 | 10.0 | 0.00 | 0.00 | 0.00 | 62 | 1014.0 |
| 20260906172019 | 90 | 157 | 5.0 | 10.0 | 0.00 | 0.00 | 0.00 | 64 | 1014.2 |
| 20260906171550 | 90 | 155 | 5.0 | 9.0 | 0.00 | 0.00 | 0.00 | 65 | 1014.3 |
| 20260906171027 | 89 | 130 | 3.0 | 8.0 | 0.00 | 0.00 | 0.00 | 64 | 1014.4 |
| 20260906170507 | 89 | 148 | 2.0 | 10.0 | 0.00 | 0.00 | 0.00 | 65 | 1014.5 |
| 20260906170036 | 89 | 140 | 5.0 | 10.0 | 0.00 | 0.00 | 0.00 | 64 | 1014.5 |
| 20260906165515 | 88 | 136 | 1.0 | 8.0 | 0.00 | 0.00 | 0.00 | 65 | 1014.5 |
| 20260906165055 | 88 | 149 | 3.0 | 8.0 | 0.00 | 0.00 | 0.00 | 66 | 1014.5 |
| 20260906164529 | 88 | 140 | 3.0 | 8.0 | 0.00 | 0.00 | 0.00 | 67 | 1014.6 |
| 20260906164103 | 87 | 147 | 2.0 | 5.0 | 0.00 | 0.00 | 0.00 | 68 | 1014.6 |
| 20260906163538 | 87 | 159 | 2.0 | 5.0 | 0.00 | 0.00 | 0.00 | 68 | 1014.7 |
| 20260906163004 | 86 | 208 | 0.0 | 3.0 | 0.00 | 0.00 | 0.00 | 69 | 1014.7 |
| 20260906162545 | 86 | 208 | 0.0 | 6.0 | 0.00 | 0.00 | 0.00 | 69 | 1014.7 |
| 20260906162021 | 86 | 208 | 1.0 | 6.0 | 0.00 | 0.00 | 0.00 | 70 | 1014.7 |
| 20260906161552 | 86 | 147 | 0.0 | 5.0 | 0.00 | 0.00 | 0.00 | 71 | 1014.7 |
| 20260906161028 | 85 | 147 | 2.0 | 5.0 | 0.00 | 0.00 | 0.00 | 69 | 1014.7 |
| 20260906160505 | 85 | 176 | 1.0 | 6.0 | 0.00 | 0.00 | 0.00 | 71 | 1014.6 |
| 20260906160036 | 85 | 150 | 1.0 | 8.0 | 0.00 | 0.00 | 0.00 | 71 | 1014.6 |
| 20260906155517 | 85 | 147 | 2.0 | 8.0 | 0.00 | 0.00 | 0.00 | 70 | 1014.6 |
| 20260906155054 | 86 | 155 | 3.0 | 8.0 | 0.00 | 0.00 | 0.00 | 70 | 1014.5 |
| 20260906154522 | 86 | 143 | 3.0 | 8.0 | 0.00 | 0.00 | 0.00 | 71 | 1014.4 |
| 20260906154101 | 86 | 146 | 2.0 | 7.0 | 0.00 | 0.00 | 0.00 | 70 | 1014.5 |
| 20260906153541 | 86 | 132 | 2.0 | 7.0 | 0.00 | 0.00 | 0.00 | 71 | 1014.4 |
| 20260906153008 | 86 | 140 | 2.0 | 7.0 | 0.00 | 0.00 | 0.00 | 71 | 1014.3 |
| 20260906152546 | 85 | 146 | 1.0 | 6.0 | 0.00 | 0.00 | 0.00 | 73 | 1014.2 |
| 20260906152024 | 85 | 150 | 1.0 | 6.0 | 0.00 | 0.00 | 0.00 | 74 | 1014.2 |
| 20260906151554 | 84 | 150 | 3.0 | 6.0 | 0.00 | 0.00 | 0.00 | 73 | 1014.1 |
| 20260906151030 | 84 | 150 | 1.0 | 5.0 | 0.00 | 0.00 | 0.00 | 74 | 1014.1 |
| 20260906150504 | 84 | 150 | 0.0 | 5.0 | 0.00 | 0.00 | 0.00 | 76 | 1014.0 |
| 20260906150035 | 83 | 150 | 0.0 | 5.0 | 0.00 | 0.00 | 0.00 | 75 | 1014.1 |
| 20260906145512 | 83 | 150 | 0.0 | 3.0 | 0.00 | 0.00 | 0.00 | 76 | 1014.0 |
| 20260906145054 | 83 | 150 | 0.0 | 2.0 | 0.00 | 0.00 | 0.00 | 77 | 1014.0 |
| 20260906144511 | 83 | 150 | 1.0 | 5.0 | 0.00 | 0.00 | 0.00 | 76 | 1014.0 |
| 20260906144052 | 83 | 150 | 1.0 | 5.0 | 0.00 | 0.00 | 0.00 | 76 | 1014.0 |
| 20260906143529 | 83 | 150 | 2.0 | 6.0 | 0.00 | 0.00 | 0.00 | 77 | 1013.9 |
| 20260906143100 | 82 | 151 | 0.0 | 6.0 | 0.00 | 0.00 | 0.00 | 78 | 1014.0 |
| 20260906142537 | 82 | 151 | 0.0 | 3.0 | 0.00 | 0.00 | 0.00 | 79 | 1014.0 |
| 20260906142016 | 82 | 151 | 0.0 | 3.0 | 0.00 | 0.00 | 0.00 | 79 | 1014.0 |
| 20260906141548 | 81 | 151 | 0.0 | 5.0 | 0.00 | 0.00 | 0.00 | 79 | 1014.0 |
| 20260906141025 | 81 | 151 | 1.0 | 5.0 | 0.00 | 0.00 | 0.00 | 80 | 1014.0 |
| 20260906140501 | 81 | 144 | 2.0 | 4.0 | 0.00 | 0.00 | 0.00 | 81 | 1013.9 |
| 20260906140028 | 81 | 144 | 1.0 | 4.0 | 0.00 | 0.00 | 0.00 | 82 | 1013.9 |
| 20260906135502 | 80 | 144 | 0.0 | 4.0 | 0.00 | 0.00 | 0.00 | 83 | 1013.8 |
| 20260906135042 | 80 | 144 | 0.0 | 2.0 | 0.00 | 0.00 | 0.00 | 83 | 1013.8 |
| 20260906134510 | 80 | 144 | 0.0 | 2.0 | 0.00 | 0.00 | 0.00 | 83 | 1013.8 |
| 20260906134050 | 80 | 144 | 0.0 | 2.0 | 0.00 | 0.00 | 0.00 | 83 | 1013.7 |
| 20260906133528 | 79 | 144 | 0.0 | 1.0 | 0.00 | 0.00 | 0.00 | 83 | 1013.7 |
| 20260906133059 | 79 | 144 | 0.0 | 0.0 | 0.00 | 0.00 | 0.00 | 84 | 1013.7 |
| 20260906132535 | 79 | 144 | 0.0 | 0.0 | 0.00 | 0.00 | 0.00 | 84 | 1013.6 |
| 20260906132012 | 79 | 144 | 0.0 | 0.0 | 0.00 | 0.00 | 0.00 | 85 | 1013.5 |
| 20260906131544 | 78 | 144 | 0.0 | 0.0 | 0.00 | 0.00 | 0.00 | 85 | 1013.4 |
| 20260906131020 | 78 | 144 | 0.0 | 0.0 | 0.00 | 0.00 | 0.00 | 86 | 1013.3 |
| 20260906130601 | 78 | 144 | 0.0 | 0.0 | 0.00 | 0.00 | 0.00 | 86 | 1013.2 |
| 20260906130029 | 77 | 144 | 0.0 | 0.0 | 0.00 | 0.00 | 0.00 | 87 | 1013.2 |
| 20260906125506 | 77 | 144 | 0.0 | 0.0 | 0.00 | 0.00 | 0.00 | 87 | 1013.2 |
| 20260906125046 | 77 | 144 | 0.0 | 0.0 | 0.00 | 0.00 | 0.00 | 88 | 1013.1 |
| 20260906124514 | 77 | 144 | 0.0 | 0.0 | 0.00 | 0.00 | 0.00 | 88 | 1013.0 |
| 20260906124056 | 77 | 144 | 0.0 | 0.0 | 0.00 | 0.00 | 0.00 | 88 | 1012.9 |
| 20260906123532 | 76 | 144 | 0.0 | 0.0 | 0.00 | 0.00 | 0.00 | 88 | 1012.9 |
| 20260906123105 | 76 | 144 | 0.0 | 0.0 | 0.00 | 0.00 | 0.00 | 88 | 1012.9 |
| 20260906122541 | 76 | 144 | 0.0 | 0.0 | 0.00 | 0.00 | 0.00 | 88 | 1012.7 |
| 20260906122019 | 76 | 144 | 0.0 | 0.0 | 0.00 | 0.00 | 0.00 | 88 | 1012.7 |
| 20260906121602 | 76 | 144 | 0.0 | 0.0 | 0.00 | 0.00 | 0.00 | 87 | 1012.6 |
| 20260906121026 | 76 | 144 | 0.0 | 0.0 | 0.00 | 0.00 | 0.00 | 87 | 1012.5 |
| 20260906120505 | 76 | 144 | 0.0 | 0.0 | 0.00 | 0.00 | 0.00 | 87 | 1012.3 |
| 20260906120035 | 76 | 144 | 0.0 | 0.0 | 0.00 | 0.00 | 0.00 | 87 | 1012.3 |
| 20260906115512 | 76 | 144 | 0.0 | 0.0 | 0.00 | 0.00 | 0.00 | 87 | 1012.2 |
| 20260906115053 | 76 | 144 | 0.0 | 0.0 | 0.00 | 0.00 | 0.00 | 86 | 1012.1 |
| 20260906114522 | 77 | 144 | 0.0 | 0.0 | 0.00 | 0.00 | 0.00 | 86 | 1012.0 |
| 20260906114102 | 77 | 144 | 0.0 | 0.0 | 0.00 | 0.00 | 0.00 | 86 | 1012.0 |
| 20260906113538 | 77 | 144 | 0.0 | 0.0 | 0.00 | 0.00 | 0.00 | 85 | 1012.0 |
| 20260906113006 | 77 | 144 | 0.0 | 0.0 | 0.00 | 0.00 | 0.00 | 85 | 1012.0 |
| 20260906112547 | 77 | 144 | 0.0 | 0.0 | 0.00 | 0.00 | 0.00 | 85 | 1012.0 |
| 20260906112024 | 77 | 144 | 0.0 | 0.0 | 0.00 | 0.00 | 0.00 | 84 | 1012.0 |
| 20260906111556 | 78 | 144 | 0.0 | 0.0 | 0.00 | 0.00 | 0.00 | 84 | 1012.0 |
| 20260906111033 | 78 | 144 | 0.0 | 0.0 | 0.00 | 0.00 | 0.00 | 83 | 1011.9 |
| 20260906110510 | 78 | 144 | 0.0 | 0.0 | 0.00 | 0.00 | 0.00 | 83 | 1011.8 |
| 20260906110042 | 78 | 144 | 0.0 | 0.0 | 0.00 | 0.00 | 0.00 | 83 | 1011.8 |
| 20260906105518 | 78 | 144 | 0.0 | 0.0 | 0.00 | 0.00 | 0.00 | 82 | 1011.8 |
| 20260906105059 | 79 | 144 | 0.0 | 0.0 | 0.00 | 0.00 | 0.00 | 82 | 1011.8 |
| 20260906104528 | 79 | 144 | 0.0 | 0.0 | 0.00 | 0.00 | 0.00 | 81 | 1011.8 |
| 20260906104005 | 79 | 144 | 0.0 | 0.0 | 0.00 | 0.00 | 0.00 | 81 | 1011.7 |
| 20260906103547 | 79 | 144 | 0.0 | 0.0 | 0.00 | 0.00 | 0.00 | 81 | 1011.7 |
| 20260906103035 | 79 | 144 | 0.0 | 0.0 | 0.00 | 0.00 | 0.00 | 81 | 1011.7 |
| 20260906102555 | 79 | 144 | 0.0 | 0.0 | 0.00 | 0.00 | 0.00 | 80 | 1011.7 |
| 20260906102032 | 80 | 144 | 0.0 | 0.0 | 0.00 | 0.00 | 0.00 | 80 | 1011.7 |
| 20260906101502 | 80 | 144 | 0.0 | 0.0 | 0.00 | 0.00 | 0.00 | 80 | 1011.5 |
| 20260906101042 | 80 | 144 | 0.0 | 0.0 | 0.00 | 0.00 | 0.00 | 79 | 1011.5 |
| 20260906100519 | 80 | 144 | 0.0 | 0.0 | 0.00 | 0.00 | 0.00 | 79 | 1011.5 |
| 20260906100052 | 80 | 144 | 0.0 | 0.0 | 0.00 | 0.00 | 0.00 | 78 | 1011.5 |
| 20260906095529 | 80 | 144 | 0.0 | 0.0 | 0.00 | 0.00 | 0.00 | 78 | 1011.6 |
| 20260906095006 | 80 | 144 | 0.0 | 0.0 | 0.00 | 0.00 | 0.00 | 78 | 1011.6 |
| 20260906094539 | 81 | 144 | 0.0 | 0.0 | 0.00 | 0.00 | 0.00 | 78 | 1011.6 |
| 20260906094015 | 81 | 144 | 0.0 | 0.0 | 0.00 | 0.00 | 0.00 | 77 | 1011.5 |
| 20260906093558 | 81 | 144 | 0.0 | 0.0 | 0.00 | 0.00 | 0.00 | 77 | 1011.4 |
| 20260906093025 | 81 | 144 | 0.0 | 0.0 | 0.00 | 0.00 | 0.00 | 77 | 1011.4 |
| 20260906092502 | 81 | 144 | 0.0 | 0.0 | 0.00 | 0.00 | 0.00 | 76 | 1011.4 |
| 20260906092043 | 81 | 144 | 0.0 | 2.0 | 0.00 | 0.00 | 0.00 | 77 | 1011.5 |
| 20260906091511 | 81 | 144 | 0.0 | 3.0 | 0.00 | 0.00 | 0.00 | 77 | 1011.4 |
| 20260906091053 | 81 | 144 | 0.0 | 3.0 | 0.00 | 0.00 | 0.00 | 76 | 1011.4 |
| 20260906090530 | 82 | 144 | 1.0 | 7.0 | 0.00 | 0.00 | 0.00 | 76 | 1011.4 |
| 20260906090103 | 82 | 144 | 2.0 | 7.0 | 0.00 | 0.00 | 0.00 | 76 | 1011.4 |
| 20260906085540 | 82 | 144 | 1.0 | 3.0 | 0.00 | 0.00 | 0.00 | 76 | 1011.5 |
| 20260906085015 | 82 | 144 | 1.0 | 3.0 | 0.00 | 0.00 | 0.00 | 76 | 1011.5 |
| 20260906084549 | 82 | 144 | 1.0 | 3.0 | 0.00 | 0.00 | 0.00 | 76 | 1011.4 |
| 20260906084026 | 82 | 144 | 1.0 | 4.0 | 0.00 | 0.00 | 0.00 | 76 | 1011.5 |
| 20260906083503 | 82 | 144 | 1.0 | 3.0 | 0.00 | 0.00 | 0.00 | 75 | 1011.4 |
| 20260906083036 | 82 | 144 | 1.0 | 4.0 | 0.00 | 0.00 | 0.00 | 75 | 1011.5 |
| 20260906082516 | 82 | 144 | 1.0 | 4.0 | 0.00 | 0.00 | 0.00 | 75 | 1011.5 |
| 20260906082054 | 82 | 144 | 0.0 | 3.0 | 0.00 | 0.00 | 0.00 | 75 | 1011.4 |
| 20260906081525 | 83 | 144 | 0.0 | 5.0 | 0.00 | 0.00 | 0.00 | 75 | 1011.5 |
| 20260906081107 | 83 | 144 | 2.0 | 5.0 | 0.00 | 0.00 | 0.00 | 75 | 1011.5 |
| 20260906080541 | 83 | 144 | 2.0 | 5.0 | 0.00 | 0.00 | 0.00 | 75 | 1011.6 |
| 20260906080010 | 83 | 144 | 2.0 | 5.0 | 0.00 | 0.00 | 0.00 | 75 | 1011.6 |
| 20260906075552 | 83 | 146 | 2.0 | 5.0 | 0.00 | 0.00 | 0.00 | 75 | 1011.6 |
| 20260906075027 | 83 | 163 | 1.0 | 6.0 | 0.00 | 0.00 | 0.00 | 75 | 1011.7 |
| 20260906074601 | 83 | 148 | 1.0 | 6.0 | 0.00 | 0.00 | 0.00 | 75 | 1011.8 |
| 20260906074037 | 83 | 152 | 0.0 | 3.0 | 0.00 | 0.00 | 0.00 | 75 | 1011.8 |
| 20260906073518 | 83 | 152 | 1.0 | 5.0 | 0.00 | 0.00 | 0.00 | 75 | 1011.9 |
| 20260906073048 | 83 | 152 | 1.0 | 5.0 | 0.00 | 0.00 | 0.00 | 76 | 1011.9 |
| 20260906072526 | 83 | 152 | 1.0 | 5.0 | 0.00 | 0.00 | 0.00 | 76 | 1012.0 |
| 20260906072105 | 83 | 152 | 0.0 | 3.0 | 0.00 | 0.00 | 0.00 | 76 | 1012.1 |
| 20260906071532 | 82 | 152 | 0.0 | 5.0 | 0.00 | 0.00 | 0.00 | 76 | 1012.1 |
| 20260906071009 | 82 | 152 | 0.0 | 3.0 | 0.00 | 0.00 | 0.00 | 76 | 1012.1 |
| 20260906070552 | 82 | 152 | 0.0 | 6.0 | 0.00 | 0.00 | 0.00 | 76 | 1012.2 |
| 20260906070020 | 82 | 153 | 1.0 | 5.0 | 0.00 | 0.00 | 0.00 | 76 | 1012.3 |
| 20260906065601 | 82 | 153 | 0.0 | 3.0 | 0.00 | 0.00 | 0.00 | 76 | 1012.3 |
| 20260906065038 | 82 | 153 | 0.0 | 3.0 | 0.00 | 0.00 | 0.00 | 76 | 1012.3 |
| 20260906064507 | 82 | 153 | 0.0 | 1.0 | 0.00 | 0.00 | 0.00 | 76 | 1012.4 |
| 20260906064045 | 82 | 153 | 0.0 | 1.0 | 0.00 | 0.00 | 0.00 | 76 | 1012.4 |
| 20260906063522 | 82 | 153 | 0.0 | 0.0 | 0.00 | 0.00 | 0.00 | 76 | 1012.5 |
| 20260906063057 | 82 | 153 | 0.0 | 5.0 | 0.00 | 0.00 | 0.00 | 76 | 1012.5 |
| 20260906062533 | 82 | 153 | 1.0 | 5.0 | 0.00 | 0.00 | 0.00 | 76 | 1012.5 |
| 20260906062012 | 82 | 153 | 0.0 | 2.0 | 0.00 | 0.00 | 0.00 | 76 | 1012.4 |
| 20260906061547 | 82 | 153 | 0.0 | 5.0 | 0.00 | 0.00 | 0.00 | 76 | 1012.4 |
| 20260906061022 | 82 | 153 | 0.0 | 5.0 | 0.00 | 0.00 | 0.00 | 76 | 1012.4 |
| 20260906060604 | 82 | 153 | 1.0 | 3.0 | 0.00 | 0.00 | 0.00 | 76 | 1012.4 |
| 20260906060034 | 82 | 153 | 1.0 | 3.0 | 0.00 | 0.00 | 0.00 | 76 | 1012.4 |
| 20260906055513 | 82 | 153 | 1.0 | 3.0 | 0.00 | 0.00 | 0.00 | 75 | 1012.6 |
| 20260906055052 | 83 | 153 | 1.0 | 3.0 | 0.00 | 0.00 | 0.00 | 75 | 1012.7 |
| 20260906054533 | 83 | 153 | 0.0 | 3.0 | 0.00 | 0.00 | 0.00 | 75 | 1012.7 |
| 20260906054104 | 83 | 153 | 0.0 | 5.0 | 0.00 | 0.00 | 0.00 | 75 | 1012.5 |
| 20260906053542 | 83 | 153 | 2.0 | 5.0 | 0.00 | 0.00 | 0.00 | 75 | 1012.5 |
| 20260906053012 | 83 | 153 | 1.0 | 5.0 | 0.00 | 0.00 | 0.00 | 74 | 1012.5 |
| 20260906052556 | 83 | 153 | 0.0 | 5.0 | 0.00 | 0.00 | 0.00 | 74 | 1012.5 |
| 20260906052030 | 83 | 153 | 2.0 | 4.0 | 0.00 | 0.00 | 0.00 | 74 | 1012.6 |
| 20260906051609 | 83 | 153 | 1.0 | 5.0 | 0.00 | 0.00 | 0.00 | 74 | 1012.6 |
| 20260906051041 | 83 | 153 | 2.0 | 6.0 | 0.00 | 0.00 | 0.00 | 74 | 1012.7 |
| 20260906050521 | 83 | 153 | 3.0 | 6.0 | 0.00 | 0.00 | 0.00 | 74 | 1012.7 |
| 20260906050052 | 83 | 144 | 2.0 | 5.0 | 0.00 | 0.00 | 0.00 | 74 | 1012.7 |
| 20260906045531 | 83 | 178 | 1.0 | 6.0 | 0.00 | 0.00 | 0.00 | 73 | 1012.9 |
| 20260906045005 | 83 | 178 | 2.0 | 6.0 | 0.00 | 0.00 | 0.00 | 73 | 1013.0 |
| 20260906044543 | 83 | 148 | 2.0 | 6.0 | 0.00 | 0.00 | 0.00 | 72 | 1012.9 |
| 20260906044017 | 83 | 155 | 2.0 | 6.0 | 0.00 | 0.00 | 0.00 | 72 | 1012.8 |
| 20260906043602 | 83 | 148 | 1.0 | 6.0 | 0.00 | 0.00 | 0.00 | 72 | 1012.7 |
| 20260906043029 | 83 | 142 | 2.0 | 5.0 | 0.00 | 0.00 | 0.00 | 72 | 1012.7 |
| 20260906042508 | 83 | 143 | 3.0 | 4.0 | 0.00 | 0.00 | 0.00 | 71 | 1012.6 |
| 20260906042047 | 83 | 143 | 1.0 | 4.0 | 0.00 | 0.00 | 0.00 | 70 | 1012.6 |
| 20260906041517 | 84 | 143 | 1.0 | 4.0 | 0.00 | 0.00 | 0.00 | 70 | 1012.6 |
| 20260906041058 | 84 | 143 | 1.0 | 4.0 | 0.00 | 0.00 | 0.00 | 69 | 1012.6 |
| 20260906040535 | 84 | 143 | 1.0 | 4.0 | 0.00 | 0.00 | 0.00 | 69 | 1012.5 |
| 20260906040006 | 84 | 143 | 2.0 | 5.0 | 0.00 | 0.00 | 0.00 | 68 | 1012.5 |
| 20260906035546 | 84 | 143 | 1.0 | 10.0 | 0.00 | 0.00 | 0.00 | 68 | 1012.5 |
| 20260906035024 | 85 | 129 | 4.0 | 10.0 | 0.00 | 0.00 | 0.00 | 68 | 1012.5 |
| 20260906034605 | 85 | 139 | 1.0 | 8.0 | 0.00 | 0.00 | 0.00 | 67 | 1012.5 |
| 20260906034034 | 85 | 140 | 2.0 | 8.0 | 0.00 | 0.00 | 0.00 | 67 | 1012.5 |
| 20260906033511 | 85 | 119 | 3.0 | 7.0 | 0.00 | 0.00 | 0.00 | 66 | 1012.5 |
| 20260906033048 | 85 | 118 | 1.0 | 7.0 | 0.00 | 0.00 | 0.00 | 66 | 1012.5 |
| 20260906032526 | 85 | 112 | 1.0 | 7.0 | 0.00 | 0.00 | 0.00 | 66 | 1012.6 |
| 20260906032105 | 85 | 133 | 2.0 | 5.0 | 0.00 | 0.00 | 0.00 | 65 | 1012.5 |
| 20260906031535 | 86 | 93 | 1.0 | 5.0 | 0.00 | 0.00 | 0.00 | 65 | 1012.6 |
| 20260906031015 | 86 | 134 | 2.0 | 7.0 | 0.00 | 0.00 | 0.00 | 65 | 1012.5 |
| 20260906030555 | 86 | 138 | 2.0 | 7.0 | 0.00 | 0.00 | 0.00 | 63 | 1012.4 |
| 20260906030028 | 86 | 126 | 3.0 | 8.0 | 0.00 | 0.00 | 0.00 | 63 | 1012.3 |
| 20260906025506 | 87 | 144 | 2.0 | 7.0 | 0.00 | 0.00 | 0.00 | 62 | 1012.1 |
| 20260906025049 | 87 | 71 | 2.0 | 5.0 | 0.00 | 0.00 | 0.00 | 61 | 1012.0 |
| 20260906024520 | 87 | 100 | 2.0 | 7.0 | 0.00 | 0.00 | 0.00 | 60 | 1012.0 |
| 20260906024104 | 87 | 110 | 2.0 | 7.0 | 0.00 | 0.00 | 0.00 | 60 | 1011.9 |
| 20260906023542 | 87 | 90 | 2.0 | 7.0 | 0.00 | 0.00 | 0.00 | 59 | 1011.8 |
| 20260906023015 | 87 | 105 | 1.0 | 7.0 | 0.00 | 0.00 | 0.00 | 58 | 1011.7 |
| 20260906022556 | 87 | 80 | 1.0 | 7.0 | 0.00 | 0.00 | 0.00 | 57 | 1011.5 |
| 20260906022037 | 88 | 124 | 2.0 | 9.0 | 0.00 | 0.00 | 0.00 | 57 | 1011.3 |
| 20260906021512 | 88 | 88 | 2.0 | 9.0 | 0.00 | 0.00 | 0.00 | 57 | 1011.3 |
| 20260906021049 | 88 | 86 | 0.0 | 6.0 | 0.00 | 0.00 | 0.00 | 56 | 1011.3 |
| 20260906020528 | 89 | 77 | 1.0 | 7.0 | 0.00 | 0.00 | 0.00 | 56 | 1011.1 |
| 20260906020103 | 89 | 92 | 0.0 | 9.0 | 0.00 | 0.00 | 0.00 | 56 | 1011.0 |
| 20260906015541 | 89 | 118 | 2.0 | 9.0 | 0.00 | 0.00 | 0.00 | 55 | 1010.9 |
| 20260906015021 | 89 | 136 | 3.0 | 9.0 | 0.00 | 0.00 | 0.00 | 55 | 1010.7 |
| 20260906014605 | 89 | 119 | 2.0 | 8.0 | 0.00 | 0.00 | 0.00 | 55 | 1010.7 |
| 20260906014034 | 89 | 134 | 3.0 | 9.0 | 0.00 | 0.00 | 0.00 | 55 | 1010.7 |
| 20260906013513 | 90 | 126 | 2.0 | 9.0 | 0.00 | 0.00 | 0.00 | 54 | 1010.7 |
| 20260906013053 | 90 | 99 | 3.0 | 10.0 | 0.00 | 0.00 | 0.00 | 54 | 1010.6 |
| 20260906012528 | 90 | 78 | 3.0 | 10.0 | 0.00 | 0.00 | 0.00 | 53 | 1010.6 |
| 20260906012006 | 91 | 130 | 3.0 | 10.0 | 0.00 | 0.00 | 0.00 | 53 | 1010.5 |
| 20260906011543 | 91 | 123 | 3.0 | 9.0 | 0.00 | 0.00 | 0.00 | 53 | 1010.4 |
| 20260906011020 | 91 | 94 | 3.0 | 8.0 | 0.00 | 0.00 | 0.00 | 53 | 1010.4 |
| 20260906010603 | 92 | 130 | 3.0 | 9.0 | 0.00 | 0.00 | 0.00 | 52 | 1010.4 |
| 20260906010037 | 92 | 137 | 3.0 | 9.0 | 0.00 | 0.00 | 0.00 | 52 | 1010.4 |
| 20260906005515 | 92 | 61 | 4.0 | 9.0 | 0.00 | 0.00 | 0.00 | 51 | 1010.4 |
| 20260906005102 | 92 | 140 | 2.0 | 9.0 | 0.00 | 0.00 | 0.00 | 51 | 1010.5 |
| 20260906004530 | 93 | 107 | 2.0 | 6.0 | 0.00 | 0.00 | 0.00 | 50 | 1010.4 |
| 20260906004009 | 93 | 95 | 2.0 | 10.0 | 0.00 | 0.00 | 0.00 | 50 | 1010.4 |
| 20260906003551 | 94 | 70 | 4.0 | 11.0 | 0.00 | 0.00 | 0.00 | 50 | 1010.4 |
| 20260906003024 | 94 | 87 | 2.0 | 9.0 | 0.00 | 0.00 | 0.00 | 49 | 1010.4 |
| 20260906002502 | 94 | 121 | 4.0 | 9.0 | 0.00 | 0.00 | 0.00 | 48 | 1010.3 |
| 20260906002043 | 95 | 121 | 4.0 | 9.0 | 0.00 | 0.00 | 0.00 | 47 | 1010.3 |
| 20260906001515 | 96 | 90 | 4.0 | 9.0 | 0.00 | 0.00 | 0.00 | 46 | 1010.3 |
| 20260906001056 | 96 | 109 | 4.0 | 9.0 | 0.00 | 0.00 | 0.00 | 46 | 1010.2 |
| 20260906000532 | 96 | 71 | 1.0 | 9.0 | 0.00 | 0.00 | 0.00 | 47 | 1010.2 |
| 20260906000004 | 96 | 96 | 3.0 | 10.0 | 0.00 | 0.00 | 0.00 | 46 | 1010.2 |
| 20260905235544 | 96 | 71 | 2.0 | 13.0 | 0.00 | 0.00 | 0.00 | 46 | 1010.2 |
| 20260905235021 | 97 | 57 | 5.0 | 13.0 | 0.00 | 0.00 | 0.00 | 45 | 1010.1 |
| 20260905234557 | 97 | 88 | 4.0 | 12.0 | 0.00 | 0.00 | 0.00 | 45 | 1010.0 |
| 20260905234034 | 97 | 74 | 3.0 | 11.0 | 0.00 | 0.00 | 0.00 | 42 | 1010.0 |
| 20260905233510 | 98 | 125 | 4.0 | 9.0 | 0.00 | 0.00 | 0.00 | 39 | 1009.9 |
| 20260905233048 | 98 | 105 | 1.0 | 8.0 | 0.00 | 0.00 | 0.00 | 40 | 1009.9 |
| 20260905232526 | 98 | 142 | 2.0 | 7.0 | 0.00 | 0.00 | 0.00 | 39 | 1010.0 |
| 20260905232003 | 98 | 138 | 3.0 | 7.0 | 0.00 | 0.00 | 0.00 | 40 | 1010.0 |
| 20260905231540 | 98 | 139 | 2.0 | 8.0 | 0.00 | 0.00 | 0.00 | 39 | 1009.9 |
| 20260905231016 | 97 | 149 | 3.0 | 8.0 | 0.00 | 0.00 | 0.00 | 40 | 1009.9 |
| 20260905230557 | 97 | 148 | 1.0 | 7.0 | 0.00 | 0.00 | 0.00 | 40 | 1009.9 |
| 20260905230030 | 98 | 82 | 2.0 | 8.0 | 0.00 | 0.00 | 0.00 | 39 | 1009.9 |
| 20260905225506 | 99 | 151 | 3.0 | 8.0 | 0.00 | 0.00 | 0.00 | 38 | 1009.9 |
| 20260905225047 | 99 | 150 | 2.0 | 10.0 | 0.00 | 0.00 | 0.00 | 38 | 1010.0 |
| 20260905224527 | 99 | 64 | 1.0 | 10.0 | 0.00 | 0.00 | 0.00 | 40 | 1010.0 |
| 20260905224104 | 99 | 107 | 3.0 | 10.0 | 0.00 | 0.00 | 0.00 | 39 | 1009.9 |
| 20260905223536 | 99 | 111 | 2.0 | 9.0 | 0.00 | 0.00 | 0.00 | 39 | 1009.9 |
| 20260905223009 | 99 | 136 | 3.0 | 9.0 | 0.00 | 0.00 | 0.00 | 39 | 1010.0 |
| 20260905222551 | 100 | 154 | 2.0 | 7.0 | 0.00 | 0.00 | 0.00 | 38 | 1010.0 |
| 20260905222026 | 99 | 207 | 0.0 | 7.0 | 0.00 | 0.00 | 0.00 | 39 | 1010.0 |
| 20260905221605 | 99 | 123 | 1.0 | 9.0 | 0.00 | 0.00 | 0.00 | 39 | 1010.0 |
| 20260905221041 | 99 | 148 | 3.0 | 9.0 | 0.00 | 0.00 | 0.00 | 38 | 1010.1 |
| 20260905220517 | 98 | 112 | 2.0 | 8.0 | 0.00 | 0.00 | 0.00 | 38 | 1010.1 |
| 20260905220055 | 99 | 138 | 3.0 | 9.0 | 0.00 | 0.00 | 0.00 | 39 | 1010.1 |
| 20260905215531 | 99 | 159 | 2.0 | 9.0 | 0.00 | 0.00 | 0.00 | 38 | 1010.1 |
| 20260905215007 | 99 | 121 | 1.0 | 8.0 | 0.00 | 0.00 | 0.00 | 40 | 1010.1 |
| 20260905214544 | 99 | 134 | 1.0 | 4.0 | 0.00 | 0.00 | 0.00 | 38 | 1010.2 |
| 20260905214027 | 99 | 136 | 0.0 | 7.0 | 0.00 | 0.00 | 0.00 | 39 | 1010.2 |
| 20260905213602 | 99 | 136 | 3.0 | 7.0 | 0.00 | 0.00 | 0.00 | 38 | 1010.3 |
| 20260905213035 | 99 | 153 | 0.0 | 8.0 | 0.00 | 0.00 | 0.00 | 39 | 1010.3 |
| 20260905212512 | 99 | 117 | 2.0 | 6.0 | 0.00 | 0.00 | 0.00 | 39 | 1010.3 |
| 20260905212052 | 99 | 117 | 1.0 | 6.0 | 0.00 | 0.00 | 0.00 | 39 | 1010.5 |
| 20260905211525 | 100 | 104 | 1.0 | 8.0 | 0.00 | 0.00 | 0.00 | 38 | 1010.5 |
| 20260905211002 | 100 | 79 | 1.0 | 6.0 | 0.00 | 0.00 | 0.00 | 40 | 1010.7 |
| 20260905210544 | 99 | 87 | 1.0 | 6.0 | 0.00 | 0.00 | 0.00 | 42 | 1010.7 |
| 20260905210016 | 99 | 122 | 0.0 | 5.0 | 0.00 | 0.00 | 0.00 | 40 | 1010.7 |
| 20260905205557 | 98 | 122 | 1.0 | 8.0 | 0.00 | 0.00 | 0.00 | 40 | 1010.8 |
| 20260905205034 | 98 | 127 | 1.0 | 9.0 | 0.00 | 0.00 | 0.00 | 40 | 1010.9 |
| 20260905204509 | 97 | 141 | 4.0 | 9.0 | 0.00 | 0.00 | 0.00 | 41 | 1011.0 |
| 20260905204047 | 97 | 261 | 2.0 | 10.0 | 0.00 | 0.00 | 0.00 | 40 | 1011.1 |
| 20260905203524 | 98 | 74 | 1.0 | 5.0 | 0.00 | 0.00 | 0.00 | 42 | 1011.1 |
| 20260905203106 | 97 | 70 | 2.0 | 8.0 | 0.00 | 0.00 | 0.00 | 45 | 1011.1 |
| 20260905202538 | 98 | 153 | 1.0 | 8.0 | 0.00 | 0.00 | 0.00 | 41 | 1011.2 |
| 20260905202015 | 98 | 75 | 3.0 | 8.0 | 0.00 | 0.00 | 0.00 | 43 | 1011.2 |
| 20260905201553 | 97 | 67 | 0.0 | 5.0 | 0.00 | 0.00 | 0.00 | 44 | 1011.2 |